Location: Bathurst
(33.4193°S, 149.5775°E)
Time: 09:29:30
(UTC+10:00)

Vanguard 1 Rocket - Pass Details

Date: 17 June 2021
Orbit: 650 x 4226 km, 34.3° (Epoch: 02 August)

Event Time Altitude Azimuth Distance (km) Brightness Sun altitude
Rises 09:57:40 0° 294° (WNW) 7,927 12.1 25.9°
Reaches altitude 10° 10:03:43 10° 294° (WNW) 6,484 11.7 26.5°
Maximum altitude 10:22:14 78° 16° (NNE) 2,140 10.0 28.4°
Drops below altitude 10° 10:31:18 10° 101° (E) 3,432 10.6 29.2°
Sets 10:33:31 0° 102° (ESE) 4,121 10.9 29.4°
